Location: Gibsondale
(40.9931°N, 80.2478°W)
Time: 09:38:46
(UTC+00:00)

Cosmos 1953 Rocket - Pass Details

Date: 29 October 2020
Orbit: 605 x 634 km, 82.5° (Epoch: 26 November)

Event Time Altitude Azimuth Distance (km) Brightness Sun altitude
Rises 23:02:59 0° 351° (N) 2,905 7.0 -8.7°
Reaches altitude 10° 23:05:13 10° 350° (N) 1,999 6.2 -9.1°
Maximum altitude 23:09:39 80° 265° (W) 641 3.7 -10.0°
Drops below altitude 10° 23:14:05 10° 178° (S) 2,000 6.3 -10.8°
Sets 23:16:19 0° 177° (S) 2,906 7.1 -11.2°
